Home > Time Zones > World Clock > Weather > U.S.A. > Knox > Past weeks

Flag for U.S.A. Weather past 2 weeks in Knox, Indiana, U.S.A.

Now
72 °F

Overcast.


Feels Like: 74 °F
Forecast: 68 / 80 °F
Wind: 17 mph from South

Location: Porter County Municipal Airport

Current Time: May 25, 2015 at 7:34:19 AM

Latest Report: May 25, 2015 at 6:56 AM


Visibility: 10 mi

Pressure: 29.89 "Hg

Humidity: 73%

Dew point: 63 °F

Location of KnoxLocation

Historic Weather in Knox — Graph

°F

Knox temperature yesterday

Maximum temperature yesterday: 82 °F (at 3:56 PM)
Minimum temperature yesterday: 56 °F (at 2:56 AM)
Average temperature yesterday: 71 °F

Past Weeks' High & Low Weather Summary

 TemperatureHumidityPressure
High83 °F (May 18, 1:56 PM)100% (May 10, 9:56 AM)30.50 "Hg (May 10, 9:56 AM)
Low38 °F (May 19, 11:56 PM)23% (May 22, 1:56 PM)29.80 "Hg (May 11, 4:56 PM)
Average60 °F68%30.11 "Hg
* Reported May 10 5:56 AM — May 25 5:56 AM, Knox, Weather by CustomWeather, © 2015

Note: Actual official high and low records may vary slightly from our data, if they occured in-between our weather recording intervals... More about our weather records

Advertising

Knox weather history for previous 24 hours

 ConditionsComfort  
Time TempWeatherWind HumidityBarometerVisibility
5:56 AM
Mon, May 25
72 °FLight rain. Mostly cloudy.13 mph73%29.90 "Hg10 mi
4:56 AM71 °FPassing clouds.10 mph73%29.89 "Hg10 mi
3:56 AM71 °FPassing clouds.10 mph71%29.89 "Hg10 mi
2:56 AM72 °FPassing clouds.12 mph66%29.89 "Hg10 mi
1:56 AM73 °FPassing clouds.13 mph64%29.91 "Hg10 mi
12:56 AM73 °FClear.12 mph64%29.94 "Hg10 mi
11:56 PM
Sun, May 24
73 °FPassing clouds.9 mph64%29.96 "Hg10 mi
10:56 PM74 °FPassing clouds.10 mph60%29.96 "Hg10 mi
9:56 PM75 °FPassing clouds.12 mph58%29.97 "Hg10 mi
8:56 PM77 °FClear.10 mph54%29.97 "Hg10 mi
7:56 PM79 °FMostly cloudy.12 mph48%29.96 "Hg10 mi
6:56 PM81 °FPassing clouds.16 mph45%29.96 "Hg10 mi
5:56 PM82 °FScattered clouds.15 mph43%29.97 "Hg10 mi
4:56 PM82 °FPartly sunny.15 mph43%29.98 "Hg10 mi
3:56 PM82 °FOvercast.15 mph41%30.00 "Hg10 mi
2:56 PM81 °FMostly cloudy.12 mph44%30.03 "Hg10 mi
1:56 PM79 °FOvercast.9 mph45%30.08 "Hg10 mi
12:56 PM79 °FScattered clouds.12 mph47%30.11 "Hg10 mi
11:56 AM75 °FPassing clouds.8 mph50%30.14 "Hg10 mi
10:56 AM72 °FPartly sunny.7 mph49%30.16 "Hg10 mi
9:56 AM69 °FPassing clouds.6 mph55%30.18 "Hg10 mi
8:56 AM66 °FLight rain. Overcast.3 mph61%30.20 "Hg10 mi
7:56 AM66 °FScattered clouds.6 mph56%30.20 "Hg10 mi
Weather by CustomWeather, © 2015

See weather overviewHow to use our weather pages